Location: Lawrence
(38.9720°N, 95.2350°W)
Time: 22:26:19
(UTC-06:00)

JAS-1B - Visible Passes

Search period start: 10 February 2016 00:00
Search period end: 20 February 2016 00:00
Orbit: 911 x 1744 km, 99.0° (Epoch: 10 February)

Date Brightness Start Highest point End Pass type
(mag) Time Alt. Az. Time Alt. Az. Time Alt. Az.
10 Feb 9.3 19:39:35 13° SE 19:39:35 13° SE 19:40:39 10° SE visible
10 Feb 9.6 21:31:48 15° SSW 21:31:48 15° SSW 21:33:04 10° SSW visible
11 Feb 9.5 06:17:17 10° E 06:20:20 14° ENE 06:23:17 10° NNE visible
11 Feb 9.0 19:58:28 19° SSE 19:58:28 19° SSE 20:00:47 10° SSE visible
11 Feb 9.7 21:50:41 14° SW 21:50:41 14° SW 21:51:40 10° SW visible
12 Feb 9.3 06:34:49 10° ESE 06:39:05 21° ENE 06:43:12 10° NNE visible
12 Feb 8.8 20:17:18 24° SSE 20:17:18 24° SSE 20:20:34 10° S visible
12 Feb 9.9 22:09:31 12° SW 22:09:31 12° SW 22:09:59 10° SW visible
13 Feb 8.6 20:36:05 30° S 20:36:05 30° S 20:40:01 10° S visible
13 Feb10.022:28:18WSW22:28:18WSW22:16:02Nvisible
14 Feb 9.2 19:02:35 12° ESE 19:02:35 12° ESE 19:03:34 10° ESE visible
14 Feb 8.5 20:54:48 35° SSW 20:54:48 35° SSW 20:59:14 10° SSW visible
14 Feb10.022:47:00WSW22:47:00WSW22:36:02NNWvisible
15 Feb 8.8 19:21:11 18° ESE 19:21:11 18° ESE 19:24:49 10° SE visible
15 Feb 8.5 21:03:11 10° N 21:13:23 38° SSW 21:18:12 10° SSW visible
15 Feb10.123:05:35W23:05:35W22:56:11NNWvisible
16 Feb 9.8 06:03:24 10° ENE 06:04:49 11° ENE 06:06:14 10° NE visible
16 Feb 8.4 19:39:37 27° ESE 19:39:37 27° ESE 19:45:14 10° SSE visible
16 Feb 8.6 21:22:19 10° N 21:31:48 38° SW 21:36:56 10° SW visible
17 Feb 9.5 06:20:06 10° E 06:23:30 16° ENE 06:26:53 10° NNE visible
17 Feb 7.9 19:50:46 10° NNE 19:57:39 40° ESE 20:05:11 10° SSE visible
17 Feb 8.8 21:41:33 10° N 21:49:47 35° W 21:55:26 10° SW visible
18 Feb 9.2 06:37:49 10° ESE 06:42:16 23° ENE 06:46:39 10° NNE visible
18 Feb 7.6 20:09:29 10° NNE 20:16:30 54° E 20:24:49 10° S visible
18 Feb 9.0 22:00:54 10° N 22:06:50 30° WNW 22:13:41 10° WSW visible
19 Feb 9.1 18:42:02 10° ENE 18:44:22 11° E 18:46:47 10° ESE visible
19 Feb 7.5 20:28:20 10° NNE 20:35:33 73° ESE 20:44:11 10° S visible
19 Feb 9.4 22:20:25 10° NNW 22:25:41 23° WNW 22:31:36 10° WSW visible
